STARLINK-35822, 66362

Orbit data source: Space-Track

STARLINK-35822, 66362 is a payload satellite owned by SpaceX/Seattle (US) in LEO that was launched on Thu, 06 Nov 2025 UTC via an FALCON 9 launch vehicle from the Air Force Western Test Range (AFWTR). Payload-class satellites include a variety of spacecraft equipped with specific instruments for various scientific and technological missions. These include communications satellites like Starlink; space stations such as the ISS; scientific satellites like the Hubble; Earth observation satellites from companies like Planet Labs, Umbra, and HawkEye 360; GPS; miniature CubeSats for education and research; and military/defense satellites.

Loading next visibility...
Identifier
66362, 2025-254Q
Orbit
LEO
Country
Flag of USUS
Related business
Manufacturer
SpaceX/Seattle
Mission
Operational Commercial Communications
Bus & Motor
STARLINK V2MO, Unknown motor
Mass
575 kg wet, ~530 kg dry
Launch date (UTC)
2025-11-06 (7 months ago)
Launch vehicle
FALCON 9
Launch site
Air Force Western Test Range (AFWTR)
Object type
Payload
Rocket body
Debris
Shape & HBR
Box + 2 Pan, 17.7 m
Radar Cross Section
36.964 m², Large (>1 m²)

Expand to show TLE details & history
Last TLE update: 1 day ago

TLE from 1 day ago
0 STARLINK-35822
1 66362U 25254Q   26170.59022565  .00019557  00000-0  67058-3 0  9997
2 66362  53.1602 119.3782 0001369  94.4511 265.6646 15.30205545 34570
Epoch: 2026-06-19T14:09Z
TLE epoch observation values (Epoch: 2026-06-19T14:09:55.496Z)
Latitude
-0.00002°
Longitude
-0.92007°
Altitude
476.169 km
Speed
7.629 km/s
True Right ascension
07h 57m 30s
True Declination
0° 00' 00"
Sunlit
Object was in daylight at epoch
Visualization orbit readout
Latitude
Unknown
Longitude
Unknown
Altitude
Unknown
Speed
Unknown
Apparent Right ascension
Unknown
Apparent Declination
Unknown
Sunlit
N/A
Visualization observer readout
Local Sidereal Time
07:17:05
Azimuth
Unknown
Elevation
Unknown
Doppler factor
Unknown
Orbital elements
Apogee altitude
476.393 km
Perigee altitude
474.517 km
Semi-major axis
6,853.592 km
Eccentricity
0.00014
Inclination
53.1602°
RAAN
119.3782°
Arg. of periapsis
94.4511°
True anomaly
265.64896°
Mean anomaly
265.6646°
Eccentric anomaly
265.65678°
Mean motion
3.8253 °/min
Orbital period
94.11 mins
BSTAR
0.00067058
Loading maneuver chart data...
Computing Atmospheric mass density...
Loading historical data...
Loading historical data...
Loading historical data...
Loading historical data...
Loading historical data...
Loading historical data...
Loading historical data...

Documentation

Showing up to 5 results
|